Morrisville, NC

12:09 PM EST on February 23, 2017 (GMT -0500)
Raleigh-Durham International

Weather History for KRDU - July, 2014

Change the Weather History Date:

Tuesday, July 29, 2014

  Actual Average Record
Temperature  
Mean Temperature 73 °F 80 °F  
Max Temperature 82 °F 90 °F 104 °F (1952)
Min Temperature 63 °F 70 °F 55 °F (1946)
Degree Days  
Heating Degree Days 0 0  
Month to date heating degree days 0 0  
Since 1 June heating degree days 0 4  
Since 1 July heating degree days 0 0  
Cooling Degree Days 8 15  
Month to date cooling degree days 407 435  
Year to date cooling degree days 997 991  
Since 1 June cooling degree days 784 782  
Growing Degree Days 22 (Base 50)    
Moisture  
Dew Point 58 °F    
Average Humidity 62    
Maximum Humidity 81    
Minimum Humidity 42    
Precipitation  
Precipitation 0.00 in 0.16 in 2.82 in (2004)
Month to date precipitation 8.88 4.40  
Year to date precipitation 31.46 24.95  
Sea Level Pressure  
Sea Level Pressure 29.93 in    
Wind  
Wind Speed 2 mph (NE)    
Max Wind Speed 10 mph    
Max Gust Speed 15 mph    
Visibility 10 miles    
Events      
T = Trace of Precipitation, MM = Missing Value Source: NWS Daily Summary

Daily Weather History Graph

Daily Weather History Graph

Search for Another Location

Airport or City:

Trip Planner

Search our weather history database for the weather conditions in past years. The results will help you decide how hot, cold, wet, or windy it might be!

Date:

Astronomy

Jul. 29, 2014 Rise Set
Actual Time 6:20 AM EDT 8:22 PM EDT
Civil Twilight 5:51 AM EDT 8:50 PM EDT
Nautical Twilight 5:17 AM EDT 9:25 PM EDT
Astronomical Twilight 4:40 AM EDT 10:02 PM EDT
Moon 8:48 AM EDT (7/29) 9:41 PM EDT (7/29)
Length of Visible Light 14h 58m
Length of Day
14h 01m
Waxing Crescent, 7% of the Moon is Illuminated
Jul 29
Waxing Crescent
Aug 3
First Quarter
Aug 10
Full
Aug 17
Last Quarter
Aug 25
New

Hourly Weather History & Observations

Time (EDT) Temp. Heat Index Dew Point Humidity Pressure Visibility Wind Dir Wind Speed Gust Speed Precip Events Conditions
12:51 AM 70.0 °F - 57.0 °F 63% 29.86 in 10.0 mi Calm Calm - N/A   Partly Cloudy
1:51 AM 69.1 °F - 57.0 °F 65% 29.87 in 10.0 mi Calm Calm - N/A   Partly Cloudy
2:51 AM 68.0 °F - 55.9 °F 65% 29.86 in 10.0 mi Calm Calm - N/A   Partly Cloudy
3:51 AM 64.9 °F - 55.9 °F 73% 29.88 in 10.0 mi Calm Calm - N/A   Partly Cloudy
4:51 AM 64.0 °F - 57.0 °F 78% 29.89 in 10.0 mi Calm Calm - N/A   Mostly Cloudy
5:51 AM 66.0 °F - 57.0 °F 73% 29.91 in 10.0 mi Calm Calm - N/A   Mostly Cloudy
6:51 AM 66.0 °F - 57.0 °F 73% 29.93 in 10.0 mi Calm Calm - N/A   Mostly Cloudy
7:51 AM 68.0 °F - 57.2 °F 68% 29.96 in 10.0 mi NE 3.5 mph - N/A   Mostly Cloudy
8:51 AM 69.1 °F - 57.9 °F 68% 29.96 in 10.0 mi NNE 6.9 mph - N/A   Mostly Cloudy
9:51 AM 72.0 °F - 57.9 °F 61% 29.95 in 10.0 mi NE 8.1 mph - N/A   Scattered Clouds
10:51 AM 75.0 °F - 57.9 °F 55% 29.96 in 10.0 mi NE 5.8 mph - N/A   Scattered Clouds
11:51 AM 78.1 °F - 57.9 °F 50% 29.95 in 10.0 mi Variable 4.6 mph - N/A   Scattered Clouds
12:51 PM 78.1 °F - 53.1 °F 42% 29.95 in 10.0 mi Calm Calm - N/A   Partly Cloudy
1:51 PM 78.1 °F - 57.0 °F 48% 29.94 in 10.0 mi Calm Calm - N/A   Scattered Clouds
2:51 PM 80.1 °F 80.1 °F 55.0 °F 42% 29.94 in 10.0 mi Calm Calm - N/A   Scattered Clouds
3:51 PM 78.1 °F - 55.9 °F 46% 29.94 in 10.0 mi NW 4.6 mph - N/A   Scattered Clouds
4:51 PM 81.0 °F 81.0 °F 57.0 °F 44% 29.93 in 10.0 mi Calm Calm - N/A   Scattered Clouds
5:51 PM 81.0 °F 80.7 °F 55.0 °F 41% 29.93 in 10.0 mi SE 4.6 mph - N/A   Scattered Clouds
6:51 PM 78.1 °F - 59.0 °F 52% 29.94 in 10.0 mi NE 4.6 mph - N/A   Scattered Clouds
7:51 PM 73.9 °F - 60.1 °F 62% 29.95 in 10.0 mi Calm Calm - N/A   Scattered Clouds
8:51 PM 71.1 °F - 62.1 °F 73% 29.96 in 10.0 mi Calm Calm - N/A   Scattered Clouds
9:51 PM 68.0 °F - 61.0 °F 78% 29.98 in 10.0 mi Calm Calm - N/A   Partly Cloudy
10:51 PM 66.2 °F - 60.8 °F 83% 30.00 in 10.0 mi Calm Calm - N/A   Partly Cloudy
11:51 PM 69.1 °F - 60.1 °F 73% 29.99 in 10.0 mi SE 3.5 mph - N/A   Partly Cloudy